Year,Month,Day,Hour,Minute,Value (Times are PST for temperature in C)
2019,06,15,00,00,14.40
2019,06,15,00,01,14.40
2019,06,15,00,02,14.40
2019,06,15,00,03,14.30
2019,06,15,00,04,14.30
2019,06,15,00,05,14.30
2019,06,15,00,06,14.20
2019,06,15,00,07,14.20
2019,06,15,00,08,14.10
2019,06,15,00,09,14.10
2019,06,15,00,10,14.00
2019,06,15,00,11,14.00
2019,06,15,00,12,13.90
2019,06,15,00,13,13.90
2019,06,15,00,14,13.90
2019,06,15,00,15,13.90
2019,06,15,00,16,13.80
2019,06,15,00,17,13.80
2019,06,15,00,18,13.80
2019,06,15,00,19,13.80
2019,06,15,00,20,13.70
2019,06,15,00,21,13.70
2019,06,15,00,22,13.70
2019,06,15,00,23,13.70
2019,06,15,00,24,13.70
2019,06,15,00,25,13.70
2019,06,15,00,26,13.60
2019,06,15,00,27,13.70
2019,06,15,00,28,13.60
2019,06,15,00,29,13.60
2019,06,15,00,30,13.60
2019,06,15,00,31,13.60
2019,06,15,00,32,13.60
2019,06,15,00,33,13.60
2019,06,15,00,34,13.60
2019,06,15,00,35,13.50
2019,06,15,00,36,13.50
2019,06,15,00,37,13.50
2019,06,15,00,38,13.50
2019,06,15,00,39,13.40
2019,06,15,00,40,13.40
2019,06,15,00,41,13.40
2019,06,15,00,42,13.40
2019,06,15,00,43,13.40
2019,06,15,00,44,13.40
2019,06,15,00,45,13.30
2019,06,15,00,46,13.30
2019,06,15,00,47,13.20
2019,06,15,00,48,13.20
2019,06,15,00,49,13.20
2019,06,15,00,50,13.10
2019,06,15,00,51,13.10
2019,06,15,00,52,13.10
2019,06,15,00,53,13.10
2019,06,15,00,54,13.10
2019,06,15,00,55,13.10
2019,06,15,00,56,13.00
2019,06,15,00,57,13.00
2019,06,15,00,58,13.00
2019,06,15,00,59,13.00
2019,06,15,01,00,13.00
2019,06,15,01,01,13.00
2019,06,15,01,02,13.00
2019,06,15,01,03,13.00
2019,06,15,01,04,13.00
2019,06,15,01,05,13.00
2019,06,15,01,06,12.90
2019,06,15,01,07,12.90
2019,06,15,01,08,12.90
2019,06,15,01,09,12.90
2019,06,15,01,10,12.90
2019,06,15,01,11,12.90
2019,06,15,01,12,12.80
2019,06,15,01,13,12.80
2019,06,15,01,14,12.80
2019,06,15,01,15,12.80
2019,06,15,01,16,12.80
2019,06,15,01,17,12.80
2019,06,15,01,18,12.70
2019,06,15,01,19,12.70
2019,06,15,01,20,12.70
2019,06,15,01,21,12.60
2019,06,15,01,22,12.60
2019,06,15,01,23,12.60
2019,06,15,01,24,12.60
2019,06,15,01,25,12.60
2019,06,15,01,26,12.60
2019,06,15,01,27,12.60
2019,06,15,01,28,12.60
2019,06,15,01,29,12.50
2019,06,15,01,30,12.50
2019,06,15,01,31,12.50
2019,06,15,01,32,12.50
2019,06,15,01,33,12.40
2019,06,15,01,34,12.40
2019,06,15,01,35,12.40
2019,06,15,01,36,12.40
2019,06,15,01,37,12.30
2019,06,15,01,38,12.30
2019,06,15,01,39,12.30
2019,06,15,01,40,12.30
2019,06,15,01,41,12.30
2019,06,15,01,42,12.30
2019,06,15,01,43,12.20
2019,06,15,01,44,12.20
2019,06,15,01,45,12.20
2019,06,15,01,46,12.20
2019,06,15,01,47,12.20
2019,06,15,01,48,12.20
2019,06,15,01,49,12.20
2019,06,15,01,50,12.20
2019,06,15,01,51,12.20
2019,06,15,01,52,12.20
2019,06,15,01,53,12.20
2019,06,15,01,54,12.20
2019,06,15,01,55,12.10
2019,06,15,01,56,12.10
2019,06,15,01,57,12.10
2019,06,15,01,58,12.10
2019,06,15,01,59,12.10
2019,06,15,02,00,12.10
2019,06,15,02,01,12.10
2019,06,15,02,02,12.10
2019,06,15,02,03,12.10
2019,06,15,02,04,12.00
2019,06,15,02,05,12.00
2019,06,15,02,06,12.00
2019,06,15,02,07,12.00
2019,06,15,02,08,11.90
2019,06,15,02,09,11.90
2019,06,15,02,10,11.90
2019,06,15,02,11,11.90
2019,06,15,02,12,11.90
2019,06,15,02,13,11.80
2019,06,15,02,14,11.80
2019,06,15,02,15,11.80
2019,06,15,02,16,11.80
2019,06,15,02,17,11.80
2019,06,15,02,18,11.80
2019,06,15,02,19,11.80
2019,06,15,02,20,11.70
2019,06,15,02,21,11.70
2019,06,15,02,22,11.70
2019,06,15,02,23,11.70
2019,06,15,02,24,11.70
2019,06,15,02,25,11.60
2019,06,15,02,26,11.60
2019,06,15,02,27,11.60
2019,06,15,02,28,11.60
2019,06,15,02,29,11.60
2019,06,15,02,30,11.50
2019,06,15,02,31,11.50
2019,06,15,02,32,11.50
2019,06,15,02,33,11.50
2019,06,15,02,34,11.50
2019,06,15,02,35,11.40
2019,06,15,02,36,11.40
2019,06,15,02,37,11.40
2019,06,15,02,38,11.40
2019,06,15,02,39,11.40
2019,06,15,02,40,11.40
2019,06,15,02,41,11.40
2019,06,15,02,42,11.40
2019,06,15,02,43,11.40
2019,06,15,02,44,11.30
2019,06,15,02,45,11.30
2019,06,15,02,46,11.30
2019,06,15,02,47,11.30
2019,06,15,02,48,11.30
2019,06,15,02,49,11.30
2019,06,15,02,50,11.30
2019,06,15,02,51,11.30
2019,06,15,02,52,11.30
2019,06,15,02,53,11.30
2019,06,15,02,54,11.30
2019,06,15,02,55,11.30
2019,06,15,02,56,11.30
2019,06,15,02,57,11.30
2019,06,15,02,58,11.30
2019,06,15,02,59,11.30
2019,06,15,03,00,11.30
2019,06,15,03,01,11.30
2019,06,15,03,02,11.30
2019,06,15,03,03,11.30
2019,06,15,03,04,11.30
2019,06,15,03,05,11.30
2019,06,15,03,06,11.30
2019,06,15,03,07,11.30
2019,06,15,03,08,11.30
2019,06,15,03,09,11.30
2019,06,15,03,10,11.30
2019,06,15,03,11,11.40
2019,06,15,03,12,11.40
2019,06,15,03,13,11.40
2019,06,15,03,14,11.40
2019,06,15,03,15,11.40
2019,06,15,03,16,11.40
2019,06,15,03,17,11.40
2019,06,15,03,18,11.40
2019,06,15,03,19,11.40
2019,06,15,03,20,11.40
2019,06,15,03,21,11.40
2019,06,15,03,22,11.40
2019,06,15,03,23,11.30
2019,06,15,03,24,11.40
2019,06,15,03,25,11.30
2019,06,15,03,26,11.30
2019,06,15,03,27,11.30
2019,06,15,03,28,11.30
2019,06,15,03,29,11.30
2019,06,15,03,30,11.30
2019,06,15,03,31,11.30
2019,06,15,03,32,11.30
2019,06,15,03,33,11.30
2019,06,15,03,34,11.30
2019,06,15,03,35,11.30
2019,06,15,03,36,11.30
2019,06,15,03,37,11.30
2019,06,15,03,38,11.30
2019,06,15,03,39,11.20
2019,06,15,03,40,11.20
2019,06,15,03,41,11.20
2019,06,15,03,42,11.20
2019,06,15,03,43,11.20
2019,06,15,03,44,11.20
2019,06,15,03,45,11.20
2019,06,15,03,46,11.20
2019,06,15,03,47,11.10
2019,06,15,03,48,11.10
2019,06,15,03,49,11.10
2019,06,15,03,50,11.10
2019,06,15,03,51,11.10
2019,06,15,03,52,11.10
2019,06,15,03,53,11.00
2019,06,15,03,54,11.00
2019,06,15,03,55,11.00
2019,06,15,03,56,10.90
2019,06,15,03,57,10.90
2019,06,15,03,58,10.90
2019,06,15,03,59,10.90
2019,06,15,04,00,10.80
2019,06,15,04,01,10.80
2019,06,15,04,02,10.80
2019,06,15,04,03,10.80
2019,06,15,04,04,10.80
2019,06,15,04,05,10.80
2019,06,15,04,06,10.80
2019,06,15,04,07,10.80
2019,06,15,04,08,10.80
2019,06,15,04,09,10.70
2019,06,15,04,10,10.70
2019,06,15,04,11,10.70
2019,06,15,04,12,10.70
2019,06,15,04,13,10.70
2019,06,15,04,14,10.70
2019,06,15,04,15,10.70
2019,06,15,04,16,10.60
2019,06,15,04,17,10.60
2019,06,15,04,18,10.60
2019,06,15,04,19,10.60
2019,06,15,04,20,10.60
2019,06,15,04,21,10.60
2019,06,15,04,22,10.60
2019,06,15,04,23,10.60
2019,06,15,04,24,10.60
2019,06,15,04,25,10.60
2019,06,15,04,26,10.50
2019,06,15,04,27,10.50
2019,06,15,04,28,10.50
2019,06,15,04,29,10.50
2019,06,15,04,30,10.50
2019,06,15,04,31,10.50
2019,06,15,04,32,10.50
2019,06,15,04,33,10.40
2019,06,15,04,34,10.40
2019,06,15,04,35,10.40
2019,06,15,04,36,10.40
2019,06,15,04,37,10.30
2019,06,15,04,38,10.30
2019,06,15,04,39,10.30
2019,06,15,04,40,10.30
2019,06,15,04,41,10.30
2019,06,15,04,42,10.30
2019,06,15,04,43,10.30
2019,06,15,04,44,10.30
2019,06,15,04,45,10.30
2019,06,15,04,46,10.30
2019,06,15,04,47,10.30
2019,06,15,04,48,10.30
2019,06,15,04,49,10.30
2019,06,15,04,50,10.30
2019,06,15,04,51,10.30
2019,06,15,04,52,10.30
2019,06,15,04,53,10.30
2019,06,15,04,54,10.20
2019,06,15,04,55,10.20
2019,06,15,04,56,10.20
2019,06,15,04,57,10.20
2019,06,15,04,58,10.20
2019,06,15,04,59,10.20
2019,06,15,05,00,10.20
2019,06,15,05,01,10.20
2019,06,15,05,02,10.20
2019,06,15,05,03,10.20
2019,06,15,05,04,10.20
2019,06,15,05,05,10.20
2019,06,15,05,06,10.20
2019,06,15,05,07,10.20
2019,06,15,05,08,10.20
2019,06,15,05,09,10.20
2019,06,15,05,10,10.20
2019,06,15,05,11,10.20
2019,06,15,05,12,10.10
2019,06,15,05,13,10.10
2019,06,15,05,14,10.10
2019,06,15,05,15,10.10
2019,06,15,05,16,10.10
2019,06,15,05,17,10.10
2019,06,15,05,18,10.10
2019,06,15,05,19,10.10
2019,06,15,05,20,10.10
2019,06,15,05,21,10.10
2019,06,15,05,22,10.10
2019,06,15,05,23,10.10
2019,06,15,05,24,10.10
2019,06,15,05,25,10.10
2019,06,15,05,26,10.10
2019,06,15,05,27,10.10
2019,06,15,05,28,10.00
2019,06,15,05,29,10.00
2019,06,15,05,30,10.00
2019,06,15,05,31,10.00
2019,06,15,05,32,9.90
2019,06,15,05,33,9.90
2019,06,15,05,34,9.90
2019,06,15,05,35,9.90
2019,06,15,05,36,9.90
2019,06,15,05,37,9.90
2019,06,15,05,38,9.90
2019,06,15,05,39,9.90
2019,06,15,05,40,9.90
2019,06,15,05,41,9.90
2019,06,15,05,42,9.90
2019,06,15,05,43,9.90
2019,06,15,05,44,9.90
2019,06,15,05,45,9.90
2019,06,15,05,46,9.90
2019,06,15,05,47,9.90
2019,06,15,05,48,9.90
2019,06,15,05,49,9.90
2019,06,15,05,50,9.90
2019,06,15,05,51,9.90
2019,06,15,05,52,9.90
2019,06,15,05,53,9.90
2019,06,15,05,54,9.90
2019,06,15,05,55,9.90
2019,06,15,05,56,9.90
2019,06,15,05,57,9.90
2019,06,15,05,58,9.90
2019,06,15,05,59,9.90
2019,06,15,06,00,9.90
2019,06,15,06,01,9.90
2019,06,15,06,02,9.90
2019,06,15,06,03,9.90
2019,06,15,06,04,9.90
2019,06,15,06,05,9.90
2019,06,15,06,06,9.90
2019,06,15,06,07,10.00
2019,06,15,06,08,10.00
2019,06,15,06,09,10.00
2019,06,15,06,10,10.10
2019,06,15,06,11,10.10
2019,06,15,06,12,10.10
2019,06,15,06,13,10.20
2019,06,15,06,14,10.20
2019,06,15,06,15,10.20
2019,06,15,06,16,10.30
2019,06,15,06,17,10.40
2019,06,15,06,18,10.40
2019,06,15,06,19,10.40
2019,06,15,06,20,10.50
2019,06,15,06,21,10.60
2019,06,15,06,22,10.60
2019,06,15,06,23,10.70
2019,06,15,06,24,10.70
2019,06,15,06,25,10.80
2019,06,15,06,26,10.80
2019,06,15,06,27,10.90
2019,06,15,06,28,11.00
2019,06,15,06,29,11.10
2019,06,15,06,30,11.20
2019,06,15,06,31,11.30
2019,06,15,06,32,11.40
2019,06,15,06,33,11.50
2019,06,15,06,34,11.60
2019,06,15,06,35,11.70
2019,06,15,06,36,11.80
2019,06,15,06,37,11.90
2019,06,15,06,38,11.90
2019,06,15,06,39,12.00
2019,06,15,06,40,12.00
2019,06,15,06,41,12.10
2019,06,15,06,42,12.10
2019,06,15,06,43,12.20
2019,06,15,06,44,12.20
2019,06,15,06,45,12.30
2019,06,15,06,46,12.30
2019,06,15,06,47,12.30
2019,06,15,06,48,12.40
2019,06,15,06,49,12.40
2019,06,15,06,50,12.50
2019,06,15,06,51,12.60
2019,06,15,06,52,12.70
2019,06,15,06,53,12.80
2019,06,15,06,54,12.90
2019,06,15,06,55,13.00
2019,06,15,06,56,13.10
2019,06,15,06,57,13.10
2019,06,15,06,58,13.20
2019,06,15,06,59,13.30
2019,06,15,07,00,13.30
2019,06,15,07,01,13.40
2019,06,15,07,02,13.40
2019,06,15,07,03,13.50
2019,06,15,07,04,13.60
2019,06,15,07,05,13.70
2019,06,15,07,06,13.80
2019,06,15,07,07,13.80
2019,06,15,07,08,13.90
2019,06,15,07,09,14.00
2019,06,15,07,10,14.00
2019,06,15,07,11,14.10
2019,06,15,07,12,14.20
2019,06,15,07,13,14.30
2019,06,15,07,14,14.30
2019,06,15,07,15,14.40
2019,06,15,07,16,14.40
2019,06,15,07,17,14.50
2019,06,15,07,18,14.60
2019,06,15,07,19,14.60
2019,06,15,07,20,14.70
2019,06,15,07,21,14.80
2019,06,15,07,22,14.80
2019,06,15,07,23,14.90
2019,06,15,07,24,14.90
2019,06,15,07,25,14.90
2019,06,15,07,26,14.90
2019,06,15,07,27,14.90
2019,06,15,07,28,15.00
2019,06,15,07,29,15.00
2019,06,15,07,30,15.10
2019,06,15,07,31,15.10
2019,06,15,07,32,15.20
2019,06,15,07,33,15.20
2019,06,15,07,34,15.20
2019,06,15,07,35,15.30
2019,06,15,07,36,15.30
2019,06,15,07,37,15.30
2019,06,15,07,38,15.40
2019,06,15,07,39,15.40
2019,06,15,07,40,15.40
2019,06,15,07,41,15.40
2019,06,15,07,42,15.40
2019,06,15,07,43,15.40
2019,06,15,07,44,15.40
2019,06,15,07,45,15.40
2019,06,15,07,46,15.50
2019,06,15,07,47,15.50
2019,06,15,07,48,15.60
2019,06,15,07,49,15.60
2019,06,15,07,50,15.60
2019,06,15,07,51,15.70
2019,06,15,07,52,15.70
2019,06,15,07,53,15.80
2019,06,15,07,54,15.80
2019,06,15,07,55,15.80
2019,06,15,07,56,15.90
2019,06,15,07,57,15.90
2019,06,15,07,58,15.90
2019,06,15,07,59,16.00
2019,06,15,08,00,16.00
2019,06,15,08,01,16.00
2019,06,15,08,02,16.10
2019,06,15,08,03,16.10
2019,06,15,08,04,16.20
2019,06,15,08,05,16.20
2019,06,15,08,06,16.20
2019,06,15,08,07,16.20
2019,06,15,08,08,16.30
2019,06,15,08,09,16.30
2019,06,15,08,10,16.30
2019,06,15,08,11,16.30
2019,06,15,08,12,16.40
2019,06,15,08,13,16.40
2019,06,15,08,14,16.40
2019,06,15,08,15,16.40
2019,06,15,08,16,16.40
2019,06,15,08,17,16.40
2019,06,15,08,18,16.50
2019,06,15,08,19,16.60
2019,06,15,08,20,16.60
2019,06,15,08,21,16.70
2019,06,15,08,22,16.70
2019,06,15,08,23,16.70
2019,06,15,08,24,16.70
2019,06,15,08,25,16.80
2019,06,15,08,26,16.80
2019,06,15,08,27,16.80
2019,06,15,08,28,16.80
2019,06,15,08,29,16.90
2019,06,15,08,30,17.00
2019,06,15,08,31,17.00
2019,06,15,08,32,17.10
2019,06,15,08,33,17.20
2019,06,15,08,34,17.30
2019,06,15,08,35,17.30
2019,06,15,08,36,17.30
2019,06,15,08,37,17.30
2019,06,15,08,38,17.30
2019,06,15,08,39,17.40
2019,06,15,08,40,17.40
2019,06,15,08,41,17.40
2019,06,15,08,42,17.50
2019,06,15,08,43,17.50
2019,06,15,08,44,17.50
2019,06,15,08,45,17.50
2019,06,15,08,46,17.50
2019,06,15,08,47,17.60
2019,06,15,08,48,17.70
2019,06,15,08,49,17.70
2019,06,15,08,50,17.70
2019,06,15,08,51,17.50
2019,06,15,08,52,17.40
2019,06,15,08,53,17.20
2019,06,15,08,54,17.10
2019,06,15,08,55,17.10
2019,06,15,08,56,17.10
2019,06,15,08,57,17.10
2019,06,15,08,58,17.20
2019,06,15,08,59,17.20
2019,06,15,09,00,17.20
2019,06,15,09,01,17.20
2019,06,15,09,02,17.20
2019,06,15,09,03,17.30
2019,06,15,09,04,17.30
2019,06,15,09,05,17.30
2019,06,15,09,06,17.30
2019,06,15,09,07,17.30
2019,06,15,09,08,17.40
2019,06,15,09,09,17.40
2019,06,15,09,10,17.40
2019,06,15,09,11,17.40
2019,06,15,09,12,17.40
2019,06,15,09,13,17.40
2019,06,15,09,14,17.50
2019,06,15,09,15,17.50
2019,06,15,09,16,17.60
2019,06,15,09,17,17.70
2019,06,15,09,18,17.80
2019,06,15,09,19,17.80
2019,06,15,09,20,17.90
2019,06,15,09,21,18.00
2019,06,15,09,22,17.90
2019,06,15,09,23,17.90
2019,06,15,09,24,17.80
2019,06,15,09,25,17.80
2019,06,15,09,26,17.80
2019,06,15,09,27,17.80
2019,06,15,09,28,17.70
2019,06,15,09,29,17.70
2019,06,15,09,30,17.60
2019,06,15,09,31,17.50
2019,06,15,09,32,17.40
2019,06,15,09,33,17.30
2019,06,15,09,34,17.20
2019,06,15,09,35,17.10
2019,06,15,09,36,17.10
2019,06,15,09,37,17.10
2019,06,15,09,38,17.10
2019,06,15,09,39,17.20
2019,06,15,09,40,17.30
2019,06,15,09,41,17.40
2019,06,15,09,42,17.50
2019,06,15,09,43,17.60
2019,06,15,09,44,17.70
2019,06,15,09,45,17.70
2019,06,15,09,46,17.70
2019,06,15,09,47,17.70
2019,06,15,09,48,17.70
2019,06,15,09,49,17.70
2019,06,15,09,50,17.70
2019,06,15,09,51,17.70
2019,06,15,09,52,17.80
2019,06,15,09,53,17.70
2019,06,15,09,54,17.70
2019,06,15,09,55,17.60
2019,06,15,09,56,17.50
2019,06,15,09,57,17.40
2019,06,15,09,58,17.40
2019,06,15,09,59,17.40
2019,06,15,10,00,17.40
2019,06,15,10,01,17.40
2019,06,15,10,02,17.50
2019,06,15,10,03,17.50
2019,06,15,10,04,17.50
2019,06,15,10,05,17.50
2019,06,15,10,06,17.40
2019,06,15,10,07,17.40
2019,06,15,10,08,17.40
2019,06,15,10,09,17.40
2019,06,15,10,10,17.30
2019,06,15,10,11,17.30
2019,06,15,10,12,17.30
2019,06,15,10,13,17.30
2019,06,15,10,14,17.30
2019,06,15,10,15,17.20
2019,06,15,10,16,17.20
2019,06,15,10,17,17.20
2019,06,15,10,18,17.20
2019,06,15,10,19,17.10
2019,06,15,10,20,17.00
2019,06,15,10,21,17.00
2019,06,15,10,22,16.90
2019,06,15,10,23,16.80
2019,06,15,10,24,16.80
2019,06,15,10,25,16.70
2019,06,15,10,26,16.70
2019,06,15,10,27,16.70
2019,06,15,10,28,16.70
2019,06,15,10,29,16.70
2019,06,15,10,30,16.70
2019,06,15,10,31,16.80
2019,06,15,10,32,16.80
2019,06,15,10,33,16.80
2019,06,15,10,34,16.80
2019,06,15,10,35,16.90
2019,06,15,10,36,16.90
2019,06,15,10,37,17.00
2019,06,15,10,38,17.00
2019,06,15,10,39,17.00
2019,06,15,10,40,17.00
2019,06,15,10,41,16.90
2019,06,15,10,42,16.90
2019,06,15,10,43,16.90
2019,06,15,10,44,16.90
2019,06,15,10,45,16.90
2019,06,15,10,46,17.00
2019,06,15,10,47,17.10
2019,06,15,10,48,17.20
2019,06,15,10,49,17.20
2019,06,15,10,50,17.20
2019,06,15,10,51,17.30
2019,06,15,10,52,17.30
2019,06,15,10,53,17.30
2019,06,15,10,54,17.40
2019,06,15,10,55,17.50
2019,06,15,10,56,17.60
2019,06,15,10,57,17.60
2019,06,15,10,58,17.60
2019,06,15,10,59,17.60
2019,06,15,11,00,17.60
2019,06,15,11,01,17.70
2019,06,15,11,02,17.70
2019,06,15,11,03,17.80
2019,06,15,11,04,17.80
2019,06,15,11,05,17.90
2019,06,15,11,06,17.90
2019,06,15,11,07,18.00
2019,06,15,11,08,18.10
2019,06,15,11,09,18.20
2019,06,15,11,10,18.20
2019,06,15,11,11,18.20
2019,06,15,11,12,18.20
2019,06,15,11,13,18.20
2019,06,15,11,14,18.20
2019,06,15,11,15,18.20
2019,06,15,11,16,18.20
2019,06,15,11,17,18.30
2019,06,15,11,18,18.30
2019,06,15,11,19,18.40
2019,06,15,11,20,18.40
2019,06,15,11,21,18.40
2019,06,15,11,22,18.40
2019,06,15,11,23,18.40
2019,06,15,11,24,18.40
2019,06,15,11,25,18.40
2019,06,15,11,26,18.50
2019,06,15,11,27,18.60
2019,06,15,11,28,18.60
2019,06,15,11,29,18.60
2019,06,15,11,30,18.70
2019,06,15,11,31,18.90
2019,06,15,11,32,18.90
2019,06,15,11,33,19.00
2019,06,15,11,34,19.00
2019,06,15,11,35,19.10
2019,06,15,11,36,19.20
2019,06,15,11,37,19.20
2019,06,15,11,38,19.20
2019,06,15,11,39,19.20
2019,06,15,11,40,19.30
2019,06,15,11,41,19.30
2019,06,15,11,42,19.30
2019,06,15,11,43,19.30
2019,06,15,11,44,19.30
2019,06,15,11,45,19.40
2019,06,15,11,46,19.40
2019,06,15,11,47,19.40
2019,06,15,11,48,19.50
2019,06,15,11,49,19.60
2019,06,15,11,50,19.60
2019,06,15,11,51,19.80
2019,06,15,11,52,19.80
2019,06,15,11,53,19.80
2019,06,15,11,54,19.80
2019,06,15,11,55,19.80
2019,06,15,11,56,19.80
2019,06,15,11,57,19.70
2019,06,15,11,58,19.70
2019,06,15,11,59,19.60
2019,06,15,12,00,19.50
2019,06,15,12,01,19.40
2019,06,15,12,02,19.30
2019,06,15,12,03,19.20
2019,06,15,12,04,19.20
2019,06,15,12,05,19.20
2019,06,15,12,06,19.20
2019,06,15,12,07,19.20
2019,06,15,12,08,19.20
2019,06,15,12,09,19.20
2019,06,15,12,10,19.10
2019,06,15,12,11,19.00
2019,06,15,12,12,19.00
2019,06,15,12,13,19.10
2019,06,15,12,14,19.10
2019,06,15,12,15,19.20
2019,06,15,12,16,19.20
2019,06,15,12,17,19.30
2019,06,15,12,18,19.30
2019,06,15,12,19,19.30
2019,06,15,12,20,19.20
2019,06,15,12,21,19.20
2019,06,15,12,22,19.10
2019,06,15,12,23,19.10
2019,06,15,12,24,19.00
2019,06,15,12,25,19.00
2019,06,15,12,26,18.90
2019,06,15,12,27,18.80
2019,06,15,12,28,18.80
2019,06,15,12,29,18.80
2019,06,15,12,30,18.80
2019,06,15,12,31,18.80
2019,06,15,12,32,18.80
2019,06,15,12,33,18.80
2019,06,15,12,34,18.80
2019,06,15,12,35,18.80
2019,06,15,12,36,18.80
2019,06,15,12,37,18.80
2019,06,15,12,38,18.80
2019,06,15,12,39,18.90
2019,06,15,12,40,18.80
2019,06,15,12,41,18.80
2019,06,15,12,42,18.80
2019,06,15,12,43,18.80
2019,06,15,12,44,18.80
2019,06,15,12,45,18.80
2019,06,15,12,46,18.90
2019,06,15,12,47,19.00
2019,06,15,12,48,19.00
2019,06,15,12,49,19.00
2019,06,15,12,50,19.00
2019,06,15,12,51,19.00
2019,06,15,12,52,19.10
2019,06,15,12,53,19.10
2019,06,15,12,54,19.20
2019,06,15,12,55,19.40
2019,06,15,12,56,19.40
2019,06,15,12,57,19.50
2019,06,15,12,58,19.60
2019,06,15,12,59,19.60
2019,06,15,13,00,19.60
2019,06,15,13,01,19.60
2019,06,15,13,02,19.50
2019,06,15,13,03,19.50
2019,06,15,13,04,19.50
2019,06,15,13,05,19.40
2019,06,15,13,06,19.40
2019,06,15,13,07,19.40
2019,06,15,13,08,19.30
2019,06,15,13,09,19.30
2019,06,15,13,10,19.30
2019,06,15,13,11,19.30
2019,06,15,13,12,19.30
2019,06,15,13,13,19.30
2019,06,15,13,14,19.40
2019,06,15,13,15,19.40
2019,06,15,13,16,19.40
2019,06,15,13,17,19.40
2019,06,15,13,18,19.40
2019,06,15,13,19,19.40
2019,06,15,13,20,19.40
2019,06,15,13,21,19.50
2019,06,15,13,22,19.60
2019,06,15,13,23,19.80
2019,06,15,13,24,20.00
2019,06,15,13,25,20.10
2019,06,15,13,26,20.20
2019,06,15,13,27,20.30
2019,06,15,13,28,20.40
2019,06,15,13,29,20.40
2019,06,15,13,30,20.40
2019,06,15,13,31,20.40
2019,06,15,13,32,20.40
2019,06,15,13,33,20.30
2019,06,15,13,34,20.20
2019,06,15,13,35,20.10
2019,06,15,13,36,20.00
2019,06,15,13,37,19.90
2019,06,15,13,38,19.90
2019,06,15,13,39,19.90
2019,06,15,13,40,19.80
2019,06,15,13,41,19.90
2019,06,15,13,42,19.90
2019,06,15,13,43,20.00
2019,06,15,13,44,20.00
2019,06,15,13,45,20.10
2019,06,15,13,46,20.10
2019,06,15,13,47,20.10
2019,06,15,13,48,20.20
2019,06,15,13,49,20.20
2019,06,15,13,50,20.30
2019,06,15,13,51,20.30
2019,06,15,13,52,20.30
2019,06,15,13,53,20.20
2019,06,15,13,54,20.20
2019,06,15,13,55,20.10
2019,06,15,13,56,20.10
2019,06,15,13,57,20.10
2019,06,15,13,58,20.10
2019,06,15,13,59,20.10
2019,06,15,14,00,20.10
2019,06,15,14,01,20.20
2019,06,15,14,02,20.30
2019,06,15,14,03,20.40
2019,06,15,14,04,20.50
2019,06,15,14,05,20.60
2019,06,15,14,06,20.80
2019,06,15,14,07,20.90
2019,06,15,14,08,20.90
2019,06,15,14,09,20.90
2019,06,15,14,10,20.90
2019,06,15,14,11,20.90
2019,06,15,14,12,20.90
2019,06,15,14,13,20.90
2019,06,15,14,14,20.90
2019,06,15,14,15,21.00
2019,06,15,14,16,21.00
2019,06,15,14,17,21.00
2019,06,15,14,18,21.00
2019,06,15,14,19,21.00
2019,06,15,14,20,21.00
2019,06,15,14,21,21.10
2019,06,15,14,22,21.20
2019,06,15,14,23,21.20
2019,06,15,14,24,21.30
2019,06,15,14,25,21.30
2019,06,15,14,26,21.30
2019,06,15,14,27,21.20
2019,06,15,14,28,21.10
2019,06,15,14,29,21.00
2019,06,15,14,30,20.90
2019,06,15,14,31,20.90
2019,06,15,14,32,20.90
2019,06,15,14,33,20.90
2019,06,15,14,34,20.90
2019,06,15,14,35,20.80
2019,06,15,14,36,20.80
2019,06,15,14,37,20.80
2019,06,15,14,38,20.90
2019,06,15,14,39,20.90
2019,06,15,14,40,21.00
2019,06,15,14,41,21.00
2019,06,15,14,42,21.10
2019,06,15,14,43,21.10
2019,06,15,14,44,21.20
2019,06,15,14,45,21.10
2019,06,15,14,46,21.10
2019,06,15,14,47,21.10
2019,06,15,14,48,21.10
2019,06,15,14,49,21.10
2019,06,15,14,50,21.20
2019,06,15,14,51,21.20
2019,06,15,14,52,21.30
2019,06,15,14,53,21.30
2019,06,15,14,54,21.30
2019,06,15,14,55,21.30
2019,06,15,14,56,21.30
2019,06,15,14,57,21.40
2019,06,15,14,58,21.40
2019,06,15,14,59,21.50
2019,06,15,15,00,21.50
2019,06,15,15,01,21.60
2019,06,15,15,02,21.60
2019,06,15,15,03,21.60
2019,06,15,15,04,21.70
2019,06,15,15,05,21.70
2019,06,15,15,06,21.90
2019,06,15,15,07,21.90
2019,06,15,15,08,22.00
2019,06,15,15,09,22.00
2019,06,15,15,10,22.10
2019,06,15,15,11,22.10
2019,06,15,15,12,22.20
2019,06,15,15,13,22.20
2019,06,15,15,14,22.30
2019,06,15,15,15,22.30
2019,06,15,15,16,22.40
2019,06,15,15,17,22.40
2019,06,15,15,18,22.50
2019,06,15,15,19,22.50
2019,06,15,15,20,22.60
2019,06,15,15,21,22.70
2019,06,15,15,22,22.70
2019,06,15,15,23,22.80
2019,06,15,15,24,22.80
2019,06,15,15,25,22.80
2019,06,15,15,26,22.80
2019,06,15,15,27,22.90
2019,06,15,15,28,22.90
2019,06,15,15,29,23.00
2019,06,15,15,30,23.00
2019,06,15,15,31,22.90
2019,06,15,15,32,22.90
2019,06,15,15,33,22.90
2019,06,15,15,34,22.80
2019,06,15,15,35,22.80
2019,06,15,15,36,22.80
2019,06,15,15,37,22.90
2019,06,15,15,38,22.90
2019,06,15,15,39,22.90
2019,06,15,15,40,23.00
2019,06,15,15,41,23.10
2019,06,15,15,42,23.20
2019,06,15,15,43,23.20
2019,06,15,15,44,23.20
2019,06,15,15,45,23.30
2019,06,15,15,46,23.30
2019,06,15,15,47,23.30
2019,06,15,15,48,23.20
2019,06,15,15,49,23.20
2019,06,15,15,50,23.20
2019,06,15,15,51,23.20
2019,06,15,15,52,23.30
2019,06,15,15,53,23.30
2019,06,15,15,54,23.30
2019,06,15,15,55,23.30
2019,06,15,15,56,23.30
2019,06,15,15,57,23.30
2019,06,15,15,58,23.30
2019,06,15,15,59,23.30
2019,06,15,16,00,23.30
2019,06,15,16,01,23.20
2019,06,15,16,02,23.10
2019,06,15,16,03,23.00
2019,06,15,16,04,23.00
2019,06,15,16,05,22.90
2019,06,15,16,06,22.90
2019,06,15,16,07,22.90
2019,06,15,16,08,22.90
2019,06,15,16,09,22.90
2019,06,15,16,10,22.90
2019,06,15,16,11,23.00
2019,06,15,16,12,23.10
2019,06,15,16,13,23.10
2019,06,15,16,14,23.30
2019,06,15,16,15,23.40
2019,06,15,16,16,23.50
2019,06,15,16,17,23.60
2019,06,15,16,18,23.70
2019,06,15,16,19,23.70
2019,06,15,16,20,23.70
2019,06,15,16,21,23.70
2019,06,15,16,22,23.70
2019,06,15,16,23,23.70
2019,06,15,16,24,23.80
2019,06,15,16,25,23.80
2019,06,15,16,26,23.80
2019,06,15,16,27,23.80
2019,06,15,16,28,23.80
2019,06,15,16,29,23.80
2019,06,15,16,30,23.80
2019,06,15,16,31,23.80
2019,06,15,16,32,23.80
2019,06,15,16,33,23.80
2019,06,15,16,34,23.80
2019,06,15,16,35,23.80
2019,06,15,16,36,23.80
2019,06,15,16,37,23.80
2019,06,15,16,38,23.80
2019,06,15,16,39,23.80
2019,06,15,16,40,23.80
2019,06,15,16,41,23.80
2019,06,15,16,42,23.90
2019,06,15,16,43,23.90
2019,06,15,16,44,23.80
2019,06,15,16,45,23.80
2019,06,15,16,46,23.80
2019,06,15,16,47,23.80
2019,06,15,16,48,23.80
2019,06,15,16,49,23.70
2019,06,15,16,50,23.70
2019,06,15,16,51,23.70
2019,06,15,16,52,23.60
2019,06,15,16,53,23.60
2019,06,15,16,54,23.60
2019,06,15,16,55,23.60
2019,06,15,16,56,23.60
2019,06,15,16,57,23.60
2019,06,15,16,58,23.60
2019,06,15,16,59,23.60
2019,06,15,17,00,23.70
2019,06,15,17,01,23.70
2019,06,15,17,02,23.70
2019,06,15,17,03,23.80
2019,06,15,17,04,23.80
2019,06,15,17,05,23.80
2019,06,15,17,06,23.80
2019,06,15,17,07,23.90
2019,06,15,17,08,23.90
2019,06,15,17,09,23.90
2019,06,15,17,10,24.00
2019,06,15,17,11,24.00
2019,06,15,17,12,24.10
2019,06,15,17,13,24.10
2019,06,15,17,14,24.20
2019,06,15,17,15,24.30
2019,06,15,17,16,24.30
2019,06,15,17,17,24.30
2019,06,15,17,18,24.30
2019,06,15,17,19,24.30
2019,06,15,17,20,24.30